TimeCST,TemperatureF,Dew PointF,Humidity,Sea Level PressureIn,VisibilityMPH,Wind Direction,Wind SpeedMPH,Gust SpeedMPH,PrecipitationIn,Events,Conditions,WindDirDegrees,DateUTC
12:15 AM,15.8,12.2,86,30.07,10.0,NNW,11.5,-,0.00,,Clear,330,2012-12-20 06:15:00
12:35 AM,15.8,12.2,86,30.07,10.0,NNW,11.5,-,0.00,,Clear,330,2012-12-20 06:35:00
1:15 AM,14.0,10.4,86,30.07,10.0,NW,12.7,-,0.00,,Mostly Cloudy,320,2012-12-20 07:15:00
1:35 AM,14.0,10.4,86,30.08,10.0,NNW,13.8,-,0.00,,Mostly Cloudy,330,2012-12-20 07:35:00
1:55 AM,14.0,10.4,86,30.08,10.0,NW,11.5,-,0.00,,Scattered Clouds,320,2012-12-20 07:55:00
2:15 AM,12.2,8.6,85,30.09,10.0,NW,11.5,-,0.00,,Partly Cloudy,320,2012-12-20 08:15:00
2:35 AM,10.4,8.6,92,30.10,10.0,NW,12.7,-,0.00,,Clear,320,2012-12-20 08:35:00
2:55 AM,12.2,8.6,85,30.10,10.0,NNW,12.7,-,0.00,,Clear,330,2012-12-20 08:55:00
3:15 AM,10.4,8.6,92,30.10,10.0,NW,11.5,-,0.00,,Clear,320,2012-12-20 09:15:00
3:35 AM,12.2,8.6,85,30.10,10.0,NW,15.0,-,0.00,,Clear,310,2012-12-20 09:35:00
3:55 AM,12.2,8.6,85,30.10,10.0,NW,15.0,-,0.00,,Clear,310,2012-12-20 09:55:00
4:15 AM,12.2,8.6,85,30.11,10.0,NW,12.7,-,0.00,,Clear,310,2012-12-20 10:15:00
4:35 AM,12.2,8.6,85,30.10,10.0,NW,12.7,-,0.00,,Clear,310,2012-12-20 10:35:00
4:55 AM,10.4,6.8,85,30.10,10.0,NW,12.7,-,0.00,,Scattered Clouds,310,2012-12-20 10:55:00
5:15 AM,10.4,6.8,85,30.10,10.0,NNW,10.4,-,0.00,,Partly Cloudy,340,2012-12-20 11:15:00
5:35 AM,12.2,8.6,85,30.10,10.0,NNW,10.4,-,0.00,,Mostly Cloudy,330,2012-12-20 11:35:00
5:55 AM,12.2,10.4,92,30.11,10.0,NNW,10.4,-,0.00,,Overcast,330,2012-12-20 11:55:00
6:15 AM,14.0,10.4,86,30.11,10.0,NNW,12.7,-,0.00,,Overcast,330,2012-12-20 12:15:00
6:35 AM,14.0,10.4,86,30.11,10.0,NNW,11.5,-,0.00,,Overcast,340,2012-12-20 12:35:00
6:55 AM,12.2,10.4,92,30.12,10.0,NW,11.5,-,0.00,,Overcast,320,2012-12-20 12:55:00
7:15 AM,12.2,10.4,92,30.12,10.0,NW,16.1,-,0.00,,Overcast,310,2012-12-20 13:15:00
7:35 AM,12.2,8.6,85,30.12,10.0,NW,11.5,-,0.00,,Overcast,320,2012-12-20 13:35:00
7:55 AM,10.4,5.0,79,30.12,10.0,NW,12.7,-,0.00,,Overcast,320,2012-12-20 13:55:00
8:15 AM,10.4,5.0,79,30.13,10.0,NW,13.8,-,0.00,,Overcast,320,2012-12-20 14:15:00
8:35 AM,8.6,3.2,79,30.14,9.0,NW,15.0,-,0.00,,Overcast,320,2012-12-20 14:35:00
8:55 AM,5.0,1.4,85,30.14,9.0,NW,13.8,-,0.00,,Overcast,320,2012-12-20 14:55:00
9:15 AM,5.0,3.2,92,30.14,2.0,NNW,15.0,-,0.00,,Overcast,330,2012-12-20 15:15:00
9:35 AM,8.6,5.0,85,30.15,3.0,NNW,13.8,-,0.00,,Overcast,340,2012-12-20 15:35:00
9:55 AM,8.6,5.0,85,30.15,5.0,NNW,10.4,-,0.00,,Overcast,340,2012-12-20 15:55:00
10:15 AM,8.6,5.0,85,30.16,6.0,North,8.1,-,0.00,,Overcast,360,2012-12-20 16:15:00
10:35 AM,8.6,5.0,85,30.15,6.0,North,8.1,-,0.00,,Overcast,350,2012-12-20 16:35:00
10:55 AM,10.4,5.0,79,30.16,7.0,North,9.2,-,0.00,,Overcast,350,2012-12-20 16:55:00
11:15 AM,10.4,5.0,79,30.15,7.0,North,10.4,-,0.00,,Overcast,10,2012-12-20 17:15:00
11:35 AM,10.4,5.0,79,30.14,5.0,North,9.2,-,0.00,,Overcast,10,2012-12-20 17:35:00
11:55 AM,10.4,5.0,79,30.14,6.0,North,8.1,-,0.00,,Overcast,350,2012-12-20 17:55:00
12:15 PM,10.4,5.0,79,30.12,7.0,North,6.9,-,0.00,,Overcast,360,2012-12-20 18:15:00
12:35 PM,12.2,6.8,79,30.12,8.0,North,4.6,-,0.00,,Overcast,360,2012-12-20 18:35:00
12:55 PM,12.2,8.6,85,30.12,8.0,NNW,5.8,-,0.00,,Mostly Cloudy,340,2012-12-20 18:55:00
1:15 PM,14.0,8.6,79,30.12,10.0,WNW,9.2,-,0.00,,Partly Cloudy,300,2012-12-20 19:15:00
1:35 PM,14.0,8.6,79,30.12,9.0,WNW,9.2,-,0.00,,Partly Cloudy,300,2012-12-20 19:35:00
1:55 PM,14.0,10.4,86,30.12,10.0,WNW,8.1,-,0.00,,Clear,300,2012-12-20 19:55:00
2:15 PM,15.8,10.4,79,30.11,10.0,NW,11.5,-,0.00,,Clear,320,2012-12-20 20:15:00
2:35 PM,17.6,10.4,73,30.12,10.0,NW,12.7,-,0.00,,Clear,320,2012-12-20 20:35:00
2:55 PM,15.8,10.4,79,30.12,10.0,NW,11.5,-,0.00,,Clear,310,2012-12-20 20:55:00
3:15 PM,15.8,10.4,79,30.13,10.0,NW,10.4,-,0.00,,Clear,310,2012-12-20 21:15:00
3:35 PM,15.8,10.4,79,30.13,10.0,NW,10.4,-,0.00,,Clear,310,2012-12-20 21:35:00
3:55 PM,14.0,10.4,86,30.14,10.0,NW,8.1,-,0.00,,Clear,310,2012-12-20 21:55:00
4:15 PM,14.0,8.6,79,30.14,10.0,NW,8.1,-,0.00,,Clear,320,2012-12-20 22:15:00
4:35 PM,12.2,8.6,85,30.14,10.0,NW,8.1,-,0.00,,Clear,320,2012-12-20 22:35:00
4:55 PM,12.2,6.8,79,30.14,10.0,NW,6.9,-,0.00,,Clear,320,2012-12-20 22:55:00
5:15 PM,10.4,5.0,79,30.15,10.0,NNW,6.9,-,0.00,,Clear,330,2012-12-20 23:15:00
5:35 PM,8.6,3.2,79,30.15,10.0,NNW,8.1,-,0.00,,Clear,330,2012-12-20 23:35:00
5:55 PM,8.6,3.2,79,30.16,10.0,NW,5.8,-,0.00,,Clear,320,2012-12-20 23:55:00
6:15 PM,8.6,3.2,79,30.16,10.0,NNW,6.9,-,0.00,,Clear,330,2012-12-21 00:15:00
6:35 PM,6.8,3.2,85,30.16,10.0,NNW,6.9,-,0.00,,Clear,340,2012-12-21 00:35:00
6:55 PM,5.0,3.2,92,30.17,10.0,NW,6.9,-,0.00,,Clear,310,2012-12-21 00:55:00
7:15 PM,5.0,3.2,92,30.17,10.0,NNW,6.9,-,0.00,,Clear,330,2012-12-21 01:15:00
7:35 PM,5.0,3.2,92,30.17,10.0,North,5.8,-,0.00,,Clear,350,2012-12-21 01:35:00
7:55 PM,5.0,1.4,85,30.17,9.0,North,4.6,-,0.00,,Clear,350,2012-12-21 01:55:00
8:15 PM,5.0,1.4,85,30.17,9.0,North,4.6,-,0.00,,Clear,350,2012-12-21 02:15:00
8:35 PM,3.2,-0.4,85,30.17,9.0,NNW,3.5,-,0.00,,Clear,330,2012-12-21 02:35:00
8:55 PM,-0.4,-5.8,78,30.19,9.0,West,5.8,-,0.00,,Clear,280,2012-12-21 02:55:00
9:15 PM,-0.4,-5.8,78,30.19,9.0,Calm,Calm,-,0.00,,Clear,0,2012-12-21 03:15:00
9:35 PM,-0.4,-5.8,78,30.19,10.0,NW,3.5,-,0.00,,Clear,320,2012-12-21 03:35:00
9:55 PM,-0.4,-5.8,78,30.19,10.0,NW,3.5,-,0.00,,Clear,320,2012-12-21 03:55:00
10:15 PM,-4.0,-9.4,78,30.20,10.0,WNW,3.5,-,0.00,,Clear,290,2012-12-21 04:15:00
10:35 PM,-4.0,-9.4,78,30.20,9.0,West,3.5,-,0.00,,Clear,280,2012-12-21 04:35:00
10:55 PM,-4.0,-9.4,78,30.20,8.0,WNW,3.5,-,0.00,,Clear,290,2012-12-21 04:55:00
11:15 PM,-4.0,-9.4,78,30.21,8.0,WNW,3.5,-,0.00,,Clear,290,2012-12-21 05:15:00
11:35 PM,-4.0,-9.4,78,30.21,8.0,West,3.5,-,0.00,,Clear,280,2012-12-21 05:35:00
11:55 PM,-5.8,-11.2,77,30.21,9.0,West,4.6,-,0.00,,Clear,280,2012-12-21 05:55:00